Miscellaneous Local Product
Issued by NWS Hastings, NE

Home | Current Version | Previous Version | Graphics & Text | Print | Product List | Glossary On
Versions: 1 2 3 4 5 6 7 8 9 10 11 12 13 14 15 16 17 18 19 20 21 22 23 24 25 26 27 28 29 30 31 32 33 34 35 36 37 38 39 40 41 42 43 44 45 46 47 48 49 50
000
AXUS43 KGID 061002
MISGRI

GID CWA HOURLY WEATHER ROUNDUP
NATIONAL WEATHER SERVICE HASTINGS NE
500 AM CDT MON JUL 06 2015

NOTE: "FAIR" INDICATES FEW OR NO CLOUDS BELOW 12,000 FEET WITH NO
SIGNIFICANT WEATHER AND/OR OBSTRUCTIONS TO VISIBILITY.

...SOUTH CENTRAL NEBRASKA...

CITY           SKY/WX    TMP DP  RH WIND       PRES   REMARKS
GRAND ISLAND   CLOUDY    69  68  96 NE7       29.87F
HASTINGS       CLOUDY    70  68  93 NE9       29.86S
KEARNEY        CLOUDY    70  66  88 NE7       29.88R
ORD            LGT RAIN  69  67  93 SE3       29.89R
YORK           LGT RAIN  70  68  94 CALM      29.89F
AURORA         CLOUDY    70  70 100 NE5       29.86F
LEXINGTON      LGT RAIN  69  67  92 SE3       29.90R
HOLDREGE       LGT RAIN  69  66  88 N8        29.88R
HEBRON         CLOUDY    79  67  67 N9        29.84R

...NEBRASKA PANHANDLE...

CITY           SKY/WX    TMP DP  RH WIND       PRES   REMARKS
CHADRON        CLOUDY    60  57  89 N12G20    30.12S FOG
ALLIANCE       CLOUDY    60  58  92 N17       30.08S
SCOTTSBLUFF    LGT RAIN  61  58  90 N10       30.12S
SIDNEY         LGT RAIN  62  60  93 N9        30.10R

...WESTERN AND NORTH CENTRAL NEBRASKA...

CITY           SKY/WX    TMP DP  RH WIND       PRES   REMARKS
VALENTINE      CLOUDY    63  61  93 N14       30.01R
AINSWORTH      CLOUDY    64  64 100 N15       29.97R
ONEILL         LGT RAIN  68  67  98 NW9       29.88R
BROKEN BOW     LGT RAIN  68  65  90 N5        29.91R
IMPERIAL       CLOUDY    65  62  90 N16       29.98S
NORTH PLATTE   CLOUDY    66  62  87 N8        29.94S
MCCOOK         CLOUDY    69  66  90 NE9       29.88R

...EASTERN NEBRASKA...

CITY           SKY/WX    TMP DP  RH WIND       PRES   REMARKS
NORFOLK        CLOUDY    70  67  90 S12       29.89R
SO SIOUX CITY  CLOUDY    71  68  90 SE5       29.84R
TEKAMAH        CLOUDY    74  71  91 N9        29.85R
COLUMBUS       CLOUDY    72  66  83 N7        29.84F
ALBION         DRIZZLE   70  66  88 SE8G17    29.91R
OMAHA EPPLEY   CLOUDY    79  73  82 W8        29.83R
OFFUTT AFB     MOCLDY    79  73  82 W6        29.83R
MILLARD        CLOUDY    79  71  77 W7        29.84R
LINCOLN        CLOUDY    79  67  66 NW21G30   29.86R
NEBRASKA CITY  CLOUDY    79  69  71 W10       29.84R
BEATRICE       CLOUDY    78  71  78 W5        29.86R
FALLS CITY     CLOUDY    80  72  76 S12       29.83R

...NORTHERN KANSAS...

CITY           SKY/WX    TMP DP  RH WIND       PRES   REMARKS
GOODLAND       CLOUDY    67  65  93 N15       29.96R
HILL CITY      MOCLDY    80  65  59 CALM      29.84R
NORTON         MOSUNNY   70  63  78 N9        29.85R
PHILLIPSBURG   PTCLDY    82  66  57 S5        29.82F
SMITH CENTER   CLEAR     75  66  73 CALM      29.83F
HAYS           MOCLDY    79  63  57 S14       29.82F
RUSSELL        CLOUDY    78  66  66 S17       29.80S
CONCORDIA      CLOUDY    79  68  69 S8        29.84R
SALINA         MOCLDY    80  67  64 S9        29.82S
TOPEKA         CLOUDY    76  71  85 SE5       29.86F



USA.gov is the U.S. government's official web portal to all federal, state and local government web resources and services.